Theta_e
325 323 324 321 318 316 317 317 318 328 342 340 340 342 344 343 345 341 344 347 347 342 341 340 340 341 341 340 339 339 339 337 335 333 332 332 335 338 337 336 338 339 342 337 333 331 336 337 336
324 322 323 316 314 317 316 317 320 325 339 336 334 340 343 347 341 341 343 346 344 342 341 341 341 341 341 341 341 340 340 340 339 337 336 335 332 335 335 333 333 336 341 340 335 333 330 335 335
319 324 320 318 315 315 313 314 322 330 336 331 334 330 337 343 337 339 342 346 345 344 342 341 340 340 340 341 340 340 340 340 340 340 339 338 337 335 334 332 330 333 341 342 338 337 335 330 332
325 319 314 318 319 319 314 318 329 326 329 330 331 335 331 330 332 339 344 346 346 344 343 342 341 340 341 341 340 340 339 339 339 339 339 339 339 338 338 336 335 331 336 339 340 339 338 335 329
320 314 316 317 318 316 315 323 323 324 328 331 331 334 334 329 340 344 344 346 345 344 343 342 341 340 340 339 339 338 338 338 338 338 338 338 338 338 338 339 339 336 334 333 338 339 339 338 333
319 311 315 315 315 315 322 322 322 325 329 331 333 334 333 329 341 344 345 345 345 343 342 341 340 339 339 339 339 339 338 338 338 338 338 338 338 337 337 336 336 336 336 336 335 335 336 336 336
319 312 313 310 313 322 322 317 321 321 325 330 328 335 332 327 334 340 342 343 342 341 340 339 338 335 330 327 328 326 325 332 334 332 334 337 337 337 337 337 338 337 337 336 335 335 335 336 335
316 311 311 308 316 325 318 315 314 316 316 314 323 335 335 328 327 329 329 330 329 327 325 323 322 320 319 319 318 317 316 319 319 319 319 322 323 330 331 336 334 328 338 340 340 339 338 336 335
312 315 313 313 317 318 315 316 313 312 317 320 320 328 327 327 321 322 321 321 321 320 320 320 320 320 319 317 315 313 312 312 314 315 313 313 315 317 320 321 318 319 323 332 336 338 338 338 338
314 314 316 314 313 316 315 315 313 316 317 324 327 324 325 324 321 319 318 317 318 318 316 314 312 311 311 311 312 312 313 313 313 314 314 314 314 314 314 314 315 316 316 318 320 324 331 336 337
313 315 314 312 312 313 315 313 312 313 316 319 329 325 322 320 319 318 317 318 316 314 314 313 312 311 311 311 310 310 311 312 313 313 313 314 314 314 314 314 314 313 314 314 315 316 317 323 330
313 311 312 311 310 313 314 313 312 313 314 312 324 323 320 319 318 319 317 315 314 314 314 313 313 311 310 310 310 310 310 311 311 311 312 313 313 313 313 313 313 313 313 314 314 315 315 315 316
312 311 311 310 310 309 310 310 312 312 309 310 318 318 319 318 318 319 319 315 314 314 313 314 312 311 311 310 310 311 311 311 312 312 313 313 314 314 314 314 315 315 315 315 314 314 314 315 315
310 310 310 310 309 309 312 311 312 311 309 312 315 315 315 315 316 314 313 313 313 314 314 313 313 312 311 311 311 311 311 311 313 314 314 315 315 315 315 315 315 315 315 314 314 314 314 314 315
310 311 310 310 310 309 310 314 313 310 308 312 313 312 312 311 312 312 313 313 313 314 313 314 313 312 312 311 311 311 310 312 313 313 314 314 314 314 315 315 315 315 315 315 315 314 314 314 315
311 309 311 311 311 311 311 312 313 307 306 309 309 309 308 308 310 312 311 312 313 313 313 314 313 312 312 311 311 309 310 311 311 310 311 312 312 312 313 314 315 315 315 314 315 315 315 315 315
306 312 312 312 310 310 311 311 310 305 305 306 305 304 304 304 305 309 310 311 311 312 313 313 313 312 311 311 309 307 308 307 307 307 309 309 310 310 310 312 313 313 315 314 314 315 315 316 316
310 312 312 311 311 309 310 309 308 308 306 304 303 303 302 303 304 308 308 309 311 312 313 313 312 312 311 310 306 306 305 305 305 305 308 309 309 309 310 311 312 313 315 314 314 314 315 316 317
307 310 311 312 310 308 307 307 306 306 307 305 305 303 302 302 304 306 308 308 312 313 312 312 312 311 311 307 306 305 305 305 304 305 307 308 308 309 309 310 311 311 313 314 315 315 315 316 316
308 308 309 310 310 308 308 309 307 307 306 305 305 303 302 302 302 305 306 308 311 312 312 312 312 311 310 306 306 306 306 306 305 305 306 307 308 307 308 308 309 311 310 312 314 315 315 315 315
308 307 309 311 309 309 305 305 304 306 309 305 303 302 303 302 303 303 307 307 310 311 312 312 312 311 308 306 307 307 307 307 306 305 304 307 307 307 307 307 308 309 309 310 311 314 315 314 316
309 309 310 310 304 303 304 306 304 306 311 307 304 302 307 307 307 308 307 308 310 311 311 312 311 311 307 306 306 307 307 307 307 307 306 305 307 307 307 307 307 307 308 308 310 311 312 313 314
309 309 309 309 308 304 305 304 304 308 312 310 307 306 308 308 307 309 309 309 311 311 311 311 311 310 308 307 307 307 308 307 307 307 307 305 305 306 306 306 306 307 307 307 308 309 311 311 312
308 309 308 307 304 303 306 305 306 308 312 309 308 307 310 309 309 309 309 310 311 311 311 311 311 310 310 309 308 307 307 308 308 308 307 306 305 305 305 305 305 306 307 307 307 308 309 310 311
308 306 304 305 304 305 308 306 309 309 308 309 308 307 307 308 308 307 308 309 311 311 312 312 311 311 310 310 309 308 308 308 308 308 308 307 306 305 304 305 305 305 306 306 307 308 308 309 311
309 306 303 303 310 308 305 310 311 306 308 310 307 306 310 309 307 306 307 309 310 311 312 311 311 311 311 310 310 310 310 309 309 309 308 308 307 306 304 304 304 304 306 306 306 307 308 309 310
310 307 306 303 303 304 303 305 307 309 311 311 309 311 309 307 306 306 308 309 310 310 311 311 311 311 312 312 311 311 310 310 310 310 309 308 307 306 305 303 303 302 306 306 307 307 308 308 309
311 306 306 303 306 307 303 305 307 305 310 311 310 309 308 309 309 308 308 310 311 311 311 311 311 311 310 310 310 310 311 311 311 310 309 309 308 307 306 304 303 301 305 306 307 307 308 307 308
310 308 308 305 304 306 303 305 302 307 311 311 310 310 307 307 306 305 306 305 304 304 305 305 306 306 306 306 306 306 307 309 310 310 310 309 308 307 307 305 303 301 300 306 307 307 306 306 306
305 308 307 306 303 306 303 306 305 310 310 307 305 303 301 299 299 299 300 302 303 304 304 305 305 306 306 306 306 306 307 308 309 309 309 309 309 308 307 306 304 302 300 301 306 307 306 305 305
Wind_Speed
7 6 4 3 3 4 3 5 2 1 2 3 2 4 9 4 1 4 8 9 11 18 15 12 9 8 6 5 4 4 4 4 4 4 3 3 3 3 2 3 4 5 3 1 1 2 1 1 3
7 3 1 2 5 2 5 4 3 5 5 8 6 4 6 3 1 5 8 10 15 16 14 12 9 7 6 4 3 2 1 1 2 2 3 3 2 3 4 6 6 6 4 4 3 2 1 3 4
8 1 3 5 4 5 4 5 4 2 7 1 5 6 4 4 2 4 8 13 15 13 13 11 8 6 5 3 2 0 1 2 3 3 4 4 5 5 6 7 7 6 2 6 6 5 5 4 7
7 2 4 4 6 5 5 2 3 6 1 5 6 8 2 5 3 6 13 16 15 13 11 9 7 5 3 2 1 1 3 4 5 6 6 7 7 7 8 8 8 7 6 8 10 9 9 8 8
3 3 3 2 5 4 4 3 5 5 4 3 1 4 2 3 7 16 16 16 14 14 11 8 6 5 3 2 0 1 3 4 5 7 8 8 9 10 10 11 10 10 10 9 11 12 12 12 11
3 3 3 4 4 4 1 4 4 3 2 4 6 5 2 5 14 17 18 17 15 14 11 9 8 6 4 2 1 2 3 5 6 7 9 10 11 11 12 13 13 13 14 13 13 14 14 14 14
5 4 5 5 5 3 3 4 6 5 5 3 7 4 2 4 17 19 20 18 15 12 10 9 7 5 3 2 1 0 3 4 6 7 9 10 11 12 12 13 14 15 17 16 16 16 17 17 16
4 4 5 5 5 4 3 3 4 4 2 2 2 6 5 7 18 18 17 16 14 12 9 7 5 3 2 1 3 3 4 5 6 7 9 10 12 12 12 13 14 15 15 17 18 19 18 18 19
3 4 3 6 6 3 1 4 2 2 5 3 3 3 2 25 20 19 17 14 12 9 7 5 3 3 3 3 3 4 6 6 6 7 8 10 11 11 11 11 12 14 14 15 16 17 19 20 20
4 3 5 2 2 2 2 3 6 4 2 4 3 6 20 24 21 18 15 13 10 8 6 4 3 2 2 3 5 6 5 5 6 8 10 11 12 12 13 14 15 16 16 16 15 15 17 18 19
2 3 1 2 2 4 2 3 1 9 1 5 6 8 10 17 16 16 13 13 12 9 6 4 2 2 3 4 5 6 7 9 10 12 13 14 15 15 16 17 19 20 20 21 20 19 17 16 16
6 2 2 5 5 2 2 2 4 3 1 1 8 10 7 7 10 14 13 13 12 10 7 5 3 3 4 5 6 8 10 11 13 14 14 16 17 18 18 19 19 20 20 20 20 20 20 19 17
4 2 4 4 6 6 4 4 2 1 6 3 9 7 7 6 10 14 13 13 12 11 9 6 4 4 4 5 8 10 11 13 13 14 14 15 16 17 18 18 18 18 19 20 22 22 22 21 21
3 5 3 6 7 6 4 3 1 1 3 7 8 8 7 8 14 11 12 14 15 12 10 8 6 4 4 7 9 10 11 12 12 12 13 12 13 15 16 16 16 17 19 20 20 21 22 22 20
3 6 5 9 7 5 4 3 2 2 3 6 6 6 7 8 11 15 17 17 16 13 10 9 6 4 6 8 9 10 11 10 11 11 12 12 13 15 15 16 16 17 17 17 18 17 16 17 15
5 5 4 5 7 5 4 6 2 3 7 8 6 5 6 7 13 17 15 17 16 14 13 10 7 6 7 9 10 10 10 11 13 14 14 14 15 16 16 15 14 16 17 16 16 16 15 14 14
7 4 2 2 4 2 3 4 3 2 5 7 6 7 8 8 11 19 18 18 18 16 14 11 9 7 7 8 9 9 9 11 12 12 12 12 13 15 17 14 12 16 16 15 15 15 14 15 14
4 6 2 4 2 2 1 7 6 3 4 8 8 8 8 8 12 18 18 18 17 16 15 12 10 7 7 7 8 8 8 9 9 12 12 12 13 17 14 10 11 15 15 14 14 15 13 13 13
6 5 5 1 1 2 3 6 9 8 5 8 10 8 9 10 13 17 15 16 17 18 16 14 10 7 7 6 6 6 7 9 10 11 13 13 12 12 12 11 11 13 15 15 14 14 13 11 13
5 7 2 1 3 2 5 11 8 5 6 6 8 9 10 6 6 8 10 17 22 20 16 13 9 8 8 6 6 6 9 8 12 12 14 13 14 15 11 13 14 12 14 16 13 13 11 8 11
5 6 3 2 4 3 6 7 5 2 3 5 5 5 5 8 8 5 7 15 19 18 16 12 10 9 8 8 8 8 10 9 11 12 14 14 14 15 10 11 12 11 12 14 13 12 11 7 7
4 2 3 4 4 2 4 4 4 4 5 3 7 5 4 5 4 2 3 10 15 15 12 11 11 11 11 10 10 10 12 13 14 15 15 15 13 13 12 11 11 11 11 12 12 10 11 8 7
4 2 4 3 4 3 7 4 7 4 2 4 7 7 4 5 3 1 3 8 12 11 12 13 13 14 13 13 13 13 16 16 17 17 16 14 13 12 12 11 11 10 11 10 11 11 10 10 9
4 5 7 4 3 3 4 4 5 2 2 4 4 5 2 2 3 2 2 4 9 10 12 13 15 16 16 16 17 18 19 20 20 19 18 16 14 13 12 11 10 9 10 10 10 11 12 12 11
5 5 3 4 4 5 2 2 9 4 4 3 8 8 5 2 2 3 5 7 8 11 13 15 17 20 19 20 21 21 22 23 23 23 21 20 17 15 13 13 12 11 11 9 11 12 12 11 11
3 4 5 5 3 4 3 5 6 5 6 5 7 6 2 3 4 6 8 10 12 13 14 15 17 20 21 22 24 24 25 25 25 25 24 23 21 16 14 14 13 12 11 8 9 11 11 12 11
1 3 3 7 1 3 2 7 8 4 4 5 6 2 5 7 7 7 9 10 12 13 15 15 18 21 23 24 25 25 25 25 27 26 25 25 22 20 17 15 14 12 10 9 8 10 10 10 12
3 4 4 3 2 3 5 5 5 3 1 5 5 5 6 5 6 6 8 9 10 11 13 12 13 17 19 21 22 24 24 24 24 25 26 24 23 20 19 17 16 15 12 11 10 11 12 13 13
2 1 4 3 3 4 2 6 6 6 4 1 2 4 5 7 6 6 8 9 8 7 7 8 9 11 14 16 18 18 19 19 20 22 24 24 24 22 21 19 17 17 16 14 14 14 14 15 14
2 5 5 4 4 2 3 6 3 6 6 3 3 5 6 6 6 5 7 8 9 10 10 11 12 14 16 18 19 18 17 16 18 20 21 21 23 22 23 22 21 20 18 16 16 16 15 16 16
Wind_Direction
263 286 315 37 74 62 251 251 242 142 78 349 93 125 125 56 133 176 134 162 170 151 152 153 158 152 143 132 116 99 80 69 65 64 57 61 67 17 346 333 325 324 249 317 31 32 88 355 341
220 266 9 83 102 114 262 256 219 200 151 145 76 55 50 72 78 109 124 140 150 147 149 154 158 158 153 149 138 119 87 51 35 32 16 7 339 316 309 313 313 323 259 236 268 316 305 267 275
165 172 98 118 127 186 220 214 214 139 151 131 102 44 71 118 77 121 132 143 142 148 152 151 149 156 159 162 164 232 313 312 311 318 319 320 322 319 317 316 315 318 269 240 264 287 301 277 264
155 47 30 117 189 241 207 236 168 111 77 49 103 72 57 329 319 142 143 145 146 148 153 143 146 149 160 166 190 266 295 307 305 306 306 301 306 308 309 311 315 309 285 263 268 275 286 293 279
103 66 76 131 205 259 252 227 161 143 123 116 86 151 60 349 117 139 150 153 152 149 152 145 141 144 149 148 273 313 314 314 311 310 309 305 303 305 304 299 302 305 299 284 273 277 283 286 287
64 103 100 188 218 229 218 146 141 92 73 151 90 106 146 143 138 138 144 146 145 147 146 143 142 143 140 134 48 338 323 318 314 315 309 305 305 305 307 306 303 299 293 291 286 281 278 280 282
118 100 179 161 194 171 173 96 123 131 113 68 140 91 137 169 136 135 136 141 145 145 146 151 155 153 146 143 164 287 311 305 309 310 307 302 297 299 304 307 305 298 294 290 288 288 284 279 275
109 88 131 198 177 189 166 89 125 92 106 100 104 160 181 191 150 142 137 137 140 143 145 146 153 154 161 242 266 284 303 298 300 311 317 315 305 300 302 301 306 305 297 292 289 287 288 286 282
123 71 172 191 161 168 148 115 30 37 100 62 7 141 176 155 150 143 140 140 144 149 154 165 193 220 245 265 286 298 303 301 292 297 304 304 310 312 304 301 305 311 309 303 295 290 287 288 286
85 108 201 161 287 197 145 100 142 104 66 42 51 34 128 149 159 156 157 157 162 168 172 192 211 236 254 269 284 297 309 307 308 308 308 306 302 300 301 300 301 301 302 303 305 305 297 290 288
126 135 322 356 262 249 122 93 59 125 50 201 173 150 140 151 165 170 173 179 179 182 186 201 227 266 284 303 308 309 306 305 305 306 308 306 304 303 303 300 298 298 297 297 297 300 304 306 303
96 49 2 352 327 126 93 98 66 2 182 146 155 143 138 157 177 185 185 193 192 195 204 219 243 283 297 315 320 323 322 322 317 314 313 311 309 308 306 305 305 305 305 304 303 300 297 295 297
86 127 57 350 47 52 78 46 124 73 345 88 126 128 165 176 194 200 204 205 199 203 212 224 245 273 300 322 327 328 328 325 321 318 318 317 315 313 312 312 313 312 311 309 305 302 301 300 295
114 88 55 23 24 43 79 18 77 291 41 112 148 180 189 198 202 205 205 206 209 212 219 228 240 267 307 330 330 329 327 325 325 327 328 329 329 327 322 318 318 319 319 317 313 308 303 297 299
111 70 36 18 356 32 331 338 238 133 130 151 190 199 209 222 212 217 218 217 217 217 223 227 241 267 311 323 324 325 327 330 332 333 327 322 322 322 323 321 323 327 326 326 326 319 313 305 297
63 50 71 343 7 350 63 269 248 173 164 209 222 234 240 245 232 233 231 222 216 222 221 222 237 266 299 313 321 325 331 331 329 325 320 319 318 314 311 313 322 328 326 328 331 333 326 318 311
16 127 101 49 40 326 77 268 306 147 176 235 248 253 252 260 257 244 235 231 226 220 214 218 234 255 289 306 316 323 325 329 335 340 334 331 330 326 318 311 321 327 324 329 332 332 331 328 325
161 107 60 130 324 21 303 263 286 284 215 249 265 262 261 261 252 251 241 232 221 211 209 219 225 251 285 305 315 316 321 335 339 345 341 334 330 327 330 325 330 330 338 339 337 334 338 332 332
128 104 113 325 341 358 273 281 274 273 269 264 261 266 259 257 274 270 250 223 208 204 208 210 223 252 279 294 305 315 324 337 343 346 349 339 336 336 333 331 330 329 346 348 349 346 345 346 353
84 112 67 335 19 78 356 289 274 274 250 242 259 265 256 255 263 269 239 212 208 207 205 211 228 253 255 271 291 302 312 321 334 344 347 348 345 334 324 326 321 330 332 337 346 358 349 331 350
33 110 135 115 359 70 331 305 354 356 330 352 347 280 268 256 267 256 210 209 204 201 203 220 244 253 256 268 276 292 305 310 322 333 340 342 341 346 332 323 330 327 324 330 336 349 5 340 340
88 325 91 58 77 212 14 269 307 339 317 347 358 343 343 358 15 28 173 189 194 200 214 233 247 248 253 263 271 281 294 299 308 317 323 329 332 332 334 335 330 320 319 324 327 327 333 336 336
145 70 73 78 86 59 352 65 269 332 16 342 344 357 350 350 349 65 153 185 200 216 230 242 241 244 254 262 269 274 279 287 296 299 305 316 321 325 327 324 310 315 316 312 312 311 310 316 316
135 69 43 54 67 32 331 109 286 225 179 309 306 325 315 314 342 290 243 227 232 236 239 242 248 255 261 268 269 272 277 283 287 291 295 305 311 316 318 315 322 315 308 317 306 304 303 302 299
67 61 3 1 10 219 319 33 244 262 272 267 296 301 302 307 288 276 258 243 239 239 244 247 252 261 267 272 273 273 277 279 279 286 292 293 299 306 309 307 308 315 310 303 300 303 301 296 296
61 121 147 203 197 262 334 238 256 211 287 289 291 261 258 272 270 262 256 252 252 253 256 260 265 273 279 281 281 281 278 277 280 284 282 284 285 293 300 302 301 313 320 300 299 296 298 299 294
46 51 143 103 64 43 248 290 300 297 270 355 9 345 300 292 284 281 281 265 272 278 281 286 289 289 289 290 290 286 284 280 280 283 282 278 280 287 292 293 292 301 296 294 290 295 291 287 286
67 155 59 3 141 269 294 279 240 294 279 4 3 350 332 327 321 317 311 317 317 310 306 305 301 297 302 301 298 295 293 288 285 284 277 274 277 279 282 286 289 291 287 276 271 270 272 275 276
103 105 66 119 132 177 290 267 214 197 172 163 290 306 311 308 303 309 331 339 343 349 347 342 334 325 324 326 323 311 304 293 287 283 283 280 277 276 275 277 279 280 280 278 274 273 275 278 280
209 186 156 132 219 208 155 271 213 193 179 146 50 338 319 310 302 335 343 339 344 342 341 338 341 339 339 339 335 325 315 307 296 293 291 286 279 276 275 275 275 275 275 273 269 270 272 274 277